Regional Weather Roundup
Issued by NWS Glasgow, MT

Home | Current Version | Previous Version | Text Only | Print | Product List | Glossary On
Versions: 1 2 3 4 5 6 7 8 9 10 11 12 13 14 15 16 17 18 19 20 21 22 23 24 25 26 27 28 29 30 31 32 33 34 35 36 37 38 39 40 41 42 43 44 45 46 47 48 49 50
757
ASUS45 KGGW 232315
RWRGGW
HOURLY REGIONAL WEATHER ROUNDUP FOR NORTHEAST MONTANA
NATIONAL WEATHER SERVICE GLASGOW MONTANA
500 PM MDT MON OCT 23 2017

NOTE: "FAIR" INDICATES FEW OR NO CLOUDS BELOW 12,000 FEET WITH NO
SIGNIFICANT WEATHER AND/OR OBSTRUCTIONS TO VISISBILITY.

NORTHEAST MONTANA


CITY           SKY/WX    TMP DP  RH WIND       PRES   REMARKS
GLASGOW        CLEAR     56  20  24 NW29G37   30.40R
WOLF POINT     CLEAR     58  23  26 NW24G33   30.36R
JORDAN           N/A     56  23  27 NW23G30   30.43R
WINNETT          N/A     55  16  21 W20G32      N/A
SIDNEY         CLEAR     55  26  32 NW26G37   30.32R
GLENDIVE       PTCLDY    55  24  30 NW21G37   30.36R

FORT PECK REPORTS


CITY           SKY/WX    TMP DP  RH WIND       PRES   REMARKS
FORT PECK        N/A     57  23  26 W29G38      N/A
THE PINES        N/A     57  23  26 NW10G20     N/A

SOUTHEAST MONTANA


CITY           SKY/WX    TMP DP  RH WIND       PRES   REMARKS
BILLINGS       MOSUNNY   56  20  24 NW16G25   30.51R
MILES CITY     PTCLDY    57  22  25 NW29G36   30.41R
BAKER          CLEAR     53  24  32 NW31G39   30.36R
LIVINGSTON     SUNNY     53  19  26 W21G30    30.55R

CENTRAL MONTANA


CITY           SKY/WX    TMP DP  RH WIND       PRES   REMARKS
HAVRE          SUNNY     56  21  25 NW12      30.48R
LEWISTOWN      SUNNY     51  18  27 NW13G22   30.51R
GREAT FALLS    SUNNY     55  15  20 W17       30.53S
CUT BANK       SUNNY     50  22  33 W23G30    30.51S
HELENA         SUNNY     54  25  32 W20G26    30.57F
BUTTE          SUNNY     48  23  37 NW12      30.62R
BOZEMAN        SUNNY     54  19  25 W12       30.59R

WESTERN MONTANA


CITY           SKY/WX    TMP DP  RH WIND       PRES   REMARKS
MISSOULA       MOSUNNY   54  31  41 W12       30.65F
KALISPELL      NOT AVBL

NORTH DAKOTA


CITY           SKY/WX    TMP DP  RH WIND       PRES   REMARKS
WILLISTON      LGT RAIN  54  27  35 NW25G36   30.30R
DICKINSON      PTCLDY    53  25  33 NW25G38   30.25R
MINOT          CLEAR     50  31  48 NW24G35   30.18R
BISMARCK       CLOUDY    54  29  38 NW28G39   30.17R

SOUTHERN SASKATCHEWAN


CITY           SKY/WX    TMP DP  RH WIND       PRES   REMARKS
REGINA         PTCLDY    50  30  46 NW23      30.28R
MOOSE JAW      PTCLDY    50  32  50 NW23G32   30.32R
ESTEVAN        PTCLDY    50  27  40 NW24G38   30.25R
SWIFT CURRENT  CLEAR     50  25  37 NW24G31   30.37R





USA.gov is the U.S. government's official web portal to all federal, state and local government web resources and services.